Altus AFB, OK

10:46 PM CDT on August 23, 2017 (GMT -0500)
Altus Air Force Base

Weather History for KLTS - August, 2014

Change the Weather History Date:

Wednesday, August 13, 2014

  Actual Average Record
Temperature  
Mean Temperature 80 °F -  
Max Temperature 96 °F 93 °F 104 °F (2010)
Min Temperature 65 °F 70 °F 62 °F (1996)
Cooling Degree Days 16    
Growing Degree Days 30 (Base 50)    
Moisture  
Dew Point 61 °F    
Average Humidity 54    
Maximum Humidity 83    
Minimum Humidity 30    
Precipitation  
Precipitation 0.00 in - - ()
Sea Level Pressure  
Sea Level Pressure 30.06 in    
Wind  
Wind Speed 7 mph (SE)    
Max Wind Speed 15 mph    
Max Gust Speed 22 mph    
Visibility 10 miles    
Events      
Averages and records for this station are not official NWS values.
T = Trace of Precipitation, MM = Missing Value Source: NWS Daily Summary

Daily Weather History Graph

Daily Weather History Graph

Search for Another Location

Airport or City:

Trip Planner

Search our weather history database for the weather conditions in past years. The results will help you decide how hot, cold, wet, or windy it might be!

Date:

Astronomy

Aug. 13, 2014 Rise Set
Actual Time 6:56 AM CDT 8:27 PM CDT
Civil Twilight 6:29 AM CDT 8:53 PM CDT
Nautical Twilight 5:57 AM CDT 9:25 PM CDT
Astronomical Twilight 5:23 AM CDT 9:59 PM CDT
Moon 10:25 PM CDT (8/13) 10:15 AM CDT (8/13)
Length of Visible Light 14h 24m
Length of Day
13h 30m
Waning Gibbous, 87% of the Moon is Illuminated
Aug 13
Waning Gibbous
Aug 17
Last Quarter
Aug 25
New
Sep 2
First Quarter
Sep 8
Full

Hourly Weather History & Observations

Time (CDT) Temp. Heat Index Dew Point Humidity Pressure Visibility Wind Dir Wind Speed Gust Speed Precip Events Conditions
12:58 AM 70.9 °F - 60.3 °F 69% 30.05 in 10.0 mi ESE 4.6 mph - N/A   Clear
1:58 AM 68.5 °F - 60.1 °F 74% 30.05 in 10.0 mi SE 3.5 mph - N/A   Clear
2:58 AM 67.5 °F - 60.6 °F 79% 30.05 in 10.0 mi East 3.5 mph - N/A   Clear
3:58 AM 67.1 °F - 60.4 °F 79% 30.05 in 10.0 mi East 5.8 mph - N/A   Clear
4:58 AM 66.2 °F - 60.1 °F 81% 30.06 in 10.0 mi East 4.6 mph - N/A   Clear
5:58 AM 65.3 °F - 59.7 °F 82% 30.07 in 10.0 mi East 2.3 mph - N/A   Partly Cloudy
6:58 AM 65.5 °F - 60.3 °F 83% 30.09 in 10.0 mi East 6.9 mph - N/A   Partly Cloudy
7:58 AM 69.1 °F - 61.3 °F 76% 30.09 in 10.0 mi East 6.9 mph - N/A   Clear
8:58 AM 75.7 °F - 62.2 °F 63% 30.11 in 10.0 mi ESE 11.5 mph - N/A   Clear
9:58 AM 80.4 °F 81.4 °F 61.2 °F 52% 30.10 in 10.0 mi SE 13.8 mph - N/A   Partly Cloudy
10:58 AM 84.9 °F 85.2 °F 61.5 °F 45% 30.10 in 10.0 mi SE 11.5 mph 19.6 mph N/A   Clear
11:44 AM 87.8 °F 87.6 °F 60.8 °F 40% 30.13 in 10.0 mi SE 12.7 mph - N/A   Clear
11:58 AM 87.3 °F 87.2 °F 61.0 °F 41% 30.08 in 10.0 mi SSE 10.4 mph 21.9 mph N/A   Clear
12:58 PM 90.5 °F 90.1 °F 59.9 °F 36% 30.06 in 10.0 mi SSE 11.5 mph - N/A   Clear
1:19 PM 91.4 °F 91.4 °F 60.8 °F 36% 30.10 in 10.0 mi South 15.0 mph 19.6 mph N/A   Clear
1:41 PM 93.2 °F 93.3 °F 60.8 °F 34% 30.09 in 10.0 mi SSE 12.7 mph - N/A   Clear
1:58 PM 93.2 °F 93.3 °F 60.6 °F 34% 30.05 in 10.0 mi SE 15.0 mph - N/A   Clear
2:58 PM 94.6 °F 94.7 °F 60.6 °F 32% 30.02 in 10.0 mi South 11.5 mph 17.3 mph N/A   Clear
3:58 PM 95.9 °F 96.1 °F 60.4 °F 31% 29.99 in 10.0 mi Variable 4.6 mph 17.3 mph N/A   Clear
4:58 PM 96.1 °F 96.4 °F 60.6 °F 31% 29.99 in 10.0 mi South 5.8 mph - N/A   Clear
5:58 PM 95.9 °F 95.7 °F 60.3 °F 30% 29.97 in 10.0 mi SE 11.5 mph - N/A   Clear
11:58 PM 77.7 °F - 61.0 °F 56% 29.99 in 10.0 mi ESE 6.9 mph - N/A   Clear